When you browse on this site, cookies collect data to enhance your experience and personalize the content and advertising you see.
Visit our Privacy Policy to learn more. By continuing to use the site, you agree to this use of cookies and data.
  • In Romania
  • List of Countries
  • For 7 days
  • Water Temperature
  • Satellite Maps
  • Weather Map
  • Weather Widgets
  • user-avatar
    Login

    Hourly Weather Kangly

    Today, 25 March, Monday

    Time Temperature Precipitation Wind Pressure Humidity
    00:00 0°C° 0 mm 4 mps 735 mmHg 77%
    01:00 0°C° 0 mm 4 mps 735 mmHg 78%
    02:00 +1°C° 0 mm 3 mps 735 mmHg 79%
    03:00 0°C° 0 mm 3 mps 735 mmHg 80%
    04:00 0°C° 0 mm 3 mps 735 mmHg 81%
    05:00 +1°C° 0 mm 2 mps 735 mmHg 82%
    06:00 -1°C° 0 mm 2 mps 735 mmHg 83%
    07:00 +2°C° 0 mm 2 mps 735 mmHg 75%
    08:00 +3°C° 0 mm 2 mps 735 mmHg 67%
    09:00 +4°C° 0 mm 2 mps 734 mmHg 59%
    10:00 +5°C° 0 mm 2 mps 734 mmHg 54%
    11:00 +7°C° 0 mm 2 mps 734 mmHg 49%
    12:00 +8°C° 0 mm 2 mps 734 mmHg 45%
    13:00 +8°C° 0 mm 2 mps 733 mmHg 44%
    14:00 +10°C° 0 mm 1 mps 733 mmHg 42%
    15:00 +11°C° 0 mm 1 mps 733 mmHg 41%
    16:00 +10°C° 0 mm 1 mps 733 mmHg 45%
    17:00 +9°C° 0 mm 2 mps 733 mmHg 48%
    18:00 +8°C° 0 mm 2 mps 733 mmHg 52%
    19:00 +7°C° 0 mm 2 mps 733 mmHg 57%
    20:00 +7°C° 0 mm 2 mps 734 mmHg 61%
    21:00 +6°C° 0 mm 2 mps 734 mmHg 66%
    22:00 +5°C° 0 mm 2 mps 734 mmHg 68%
    23:00 +5°C° 0 mm 2 mps 733 mmHg 71%

    Tomorrow, 26 March, Tuesday

    Time Temperature Precipitation Wind Pressure Humidity
    00:00 +4°C° 0 mm 2 mps 733 mmHg 74%
    01:00 +4°C° 0 mm 2 mps 733 mmHg 75%
    02:00 +3°C° 0 mm 2 mps 733 mmHg 76%
    03:00 +3°C° 0 mm 2 mps 733 mmHg 77%
    04:00 +3°C° 0 mm 2 mps 733 mmHg 77%
    05:00 +1°C° 0 mm 3 mps 733 mmHg 78%
    06:00 +1°C° 0 mm 3 mps 733 mmHg 78%
    07:00 +3°C° 0 mm 4 mps 733 mmHg 70%
    08:00 +3°C° 0 mm 5 mps 733 mmHg 63%
    09:00 +6°C° 0 mm 5 mps 732 mmHg 56%
    10:00 +7°C° 0 mm 6 mps 732 mmHg 54%
    11:00 +9°C° 0 mm 6 mps 732 mmHg 52%
    12:00 +10°C° 0 mm 6 mps 731 mmHg 50%
    13:00 +10°C° 0 mm 6 mps 731 mmHg 49%
    14:00 +11°C° 0 mm 6 mps 730 mmHg 48%
    15:00 +13°C° 0 mm 6 mps 730 mmHg 48%
    16:00 +12°C° 0 mm 5 mps 730 mmHg 51%
    17:00 +10°C° 0 mm 5 mps 730 mmHg 55%
    18:00 +10°C° 0 mm 4 mps 730 mmHg 59%
    19:00 +8°C° 0 mm 4 mps 730 mmHg 64%
    20:00 +8°C° 0 mm 3 mps 731 mmHg 68%
    21:00 +7°C° 0 mm 3 mps 731 mmHg 73%
    22:00 +6°C° 0 mm 2 mps 731 mmHg 75%
    23:00 +5°C° 0 mm 2 mps 731 mmHg 77%

    Day after tomorrow, 27 March, Wednesday

    Time Temperature Precipitation Wind Pressure Humidity
    00:00 +5°C° 0 mm 2 mps 731 mmHg 78%
    01:00 +6°C° 0 mm 1 mps 731 mmHg 79%
    02:00 +5°C° 0 mm 1 mps 731 mmHg 79%
    03:00 +5°C° 0 mm 1 mps 731 mmHg 79%
    04:00 +5°C° 0 mm 1 mps 731 mmHg 80%
    05:00 +5°C° 0 mm 1 mps 731 mmHg 80%
    06:00 +5°C° 0 mm 1 mps 731 mmHg 80%
    07:00 +6°C° 0 mm 2 mps 731 mmHg 72%
    08:00 +8°C° 0 mm 3 mps 731 mmHg 63%
    09:00 +11°C° 0 mm 4 mps 731 mmHg 55%
    10:00 +12°C° 0 mm 4 mps 731 mmHg 49%
    11:00 +13°C° 0 mm 5 mps 731 mmHg 43%
    12:00 +15°C° 0 mm 5 mps 731 mmHg 37%
    13:00 +15°C° 0 mm 5 mps 731 mmHg 37%
    14:00 +15°C° 0 mm 5 mps 731 mmHg 38%
    15:00 +16°C° 0 mm 5 mps 731 mmHg 38%
    16:00 +15°C° 0 mm 4 mps 732 mmHg 43%
    17:00 +14°C° 0 mm 4 mps 732 mmHg 48%
    18:00 +13°C° 0 mm 3 mps 733 mmHg 53%
    19:00 +13°C° 0.1 mm 3 mps 733 mmHg 58%
    20:00 +12°C° 0.1 mm 3 mps 734 mmHg 62%
    21:00 +12°C° 0.1 mm 2 mps 734 mmHg 66%
    22:00 +11°C° 0.2 mm 3 mps 734 mmHg 70%
    23:00 +10°C° 0.2 mm 3 mps 734 mmHg 75%

    28 March, Thursday

    Time Temperature Precipitation Wind Pressure Humidity
    00:00 +8°C° 0.2 mm 4 mps 735 mmHg 79%
    01:00 +8°C° 0.2 mm 4 mps 735 mmHg 77%
    02:00 +7°C° 0.2 mm 4 mps 735 mmHg 75%
    03:00 +6°C° 0.2 mm 5 mps 735 mmHg 73%
    04:00 +6°C° 0 mm 4 mps 736 mmHg 69%
    05:00 +5°C° 0 mm 4 mps 736 mmHg 65%
    06:00 +4°C° 0 mm 4 mps 736 mmHg 61%
    07:00 +5°C° 0 mm 4 mps 736 mmHg 59%
    08:00 +5°C° 0 mm 4 mps 736 mmHg 58%
    09:00 +6°C° 0 mm 4 mps 737 mmHg 56%
    10:00 +7°C° 0 mm 4 mps 736 mmHg 54%
    11:00 +8°C° 0 mm 4 mps 736 mmHg 52%
    12:00 +10°C° 0 mm 4 mps 736 mmHg 51%
    13:00 +8°C° 0 mm 4 mps 736 mmHg 53%
    14:00 +8°C° 0 mm 4 mps 736 mmHg 55%
    15:00 +7°C° 0 mm 5 mps 736 mmHg 58%
    16:00 +6°C° 0.3 mm 4 mps 736 mmHg 61%
    17:00 +6°C° 0.3 mm 4 mps 736 mmHg 63%
    18:00 +5°C° 0.3 mm 4 mps 737 mmHg 66%
    19:00 +5°C° 0.4 mm 3 mps 737 mmHg 68%
    20:00 +5°C° 0.4 mm 3 mps 737 mmHg 71%
    21:00 +5°C° 0.4 mm 2 mps 738 mmHg 74%
    22:00 +4°C° 0.5 mm 3 mps 738 mmHg 76%
    23:00 +3°C° 0.5 mm 3 mps 738 mmHg 79%

    29 March, Friday

    Time Temperature Precipitation Wind Pressure Humidity
    00:00 +2°C° 0.5 mm 3 mps 738 mmHg 81%
    01:00 +2°C° 0.6 mm 3 mps 738 mmHg 83%
    02:00 +1°C° 0.6 mm 3 mps 738 mmHg 84%
    03:00 +2°C° 0.6 mm 2 mps 738 mmHg 85%
    04:00 +2°C° 0.4 mm 2 mps 739 mmHg 86%
    05:00 +1°C° 0.4 mm 2 mps 739 mmHg 86%
    06:00 +2°C° 0.4 mm 1 mps 739 mmHg 86%
    07:00 +2°C° 0.1 mm 1 mps 739 mmHg 81%
    08:00 +3°C° 0.1 mm 1 mps 739 mmHg 77%
    09:00 +3°C° 0.1 mm 1 mps 739 mmHg 73%
    10:00 +4°C° 0 mm 1 mps 739 mmHg 69%
    11:00 +4°C° 0 mm 1 mps 739 mmHg 66%
    12:00 +4°C° 0 mm 0 mps 739 mmHg 63%
    13:00 +5°C° 0 mm 0 mps 738 mmHg 60%
    14:00 +5°C° 0 mm 0 mps 738 mmHg 57%
    15:00 +7°C° 0 mm 1 mps 737 mmHg 54%
    16:00 +6°C° 0 mm 1 mps 737 mmHg 55%
    17:00 +6°C° 0 mm 1 mps 737 mmHg 57%
    18:00 +6°C° 0 mm 1 mps 737 mmHg 58%
    19:00 +5°C° 0 mm 1 mps 737 mmHg 62%
    20:00 +4°C° 0 mm 1 mps 737 mmHg 66%
    21:00 +3°C° 0 mm 2 mps 737 mmHg 69%
    22:00 +2°C° 0 mm 2 mps 737 mmHg 70%
    23:00 +2°C° 0 mm 2 mps 737 mmHg 70%

    30 March, Saturday

    Time Temperature Precipitation Wind Pressure Humidity
    00:00 +1°C° 0 mm 2 mps 736 mmHg 71%
    01:00 +1°C° 0 mm 2 mps 736 mmHg 71%
    02:00 +1°C° 0 mm 2 mps 736 mmHg 72%
    03:00 +1°C° 0 mm 2 mps 735 mmHg 72%
    04:00 +1°C° 0 mm 2 mps 735 mmHg 72%
    05:00 -1°C° 0 mm 2 mps 735 mmHg 73%
    06:00 -1°C° 0 mm 2 mps 735 mmHg 73%
    07:00 +2°C° 0 mm 2 mps 735 mmHg 67%
    08:00 +3°C° 0 mm 3 mps 735 mmHg 60%
    09:00 +5°C° 0 mm 4 mps 735 mmHg 54%
    10:00 +5°C° 0 mm 4 mps 735 mmHg 56%
    11:00 +6°C° 0 mm 5 mps 735 mmHg 58%
    12:00 +6°C° 0 mm 5 mps 735 mmHg 60%
    13:00 +6°C° 0.1 mm 5 mps 734 mmHg 62%
    14:00 +5°C° 0.1 mm 4 mps 734 mmHg 64%
    15:00 +5°C° 0.1 mm 4 mps 734 mmHg 66%
    16:00 +5°C° 0 mm 3 mps 735 mmHg 64%
    17:00 +6°C° 0 mm 2 mps 735 mmHg 63%
    18:00 +6°C° 0 mm 2 mps 735 mmHg 62%
    19:00 +5°C° 0 mm 2 mps 736 mmHg 66%
    20:00 +5°C° 0 mm 1 mps 736 mmHg 70%
    21:00 +4°C° 0 mm 1 mps 737 mmHg 74%
    22:00 +3°C° 0 mm 1 mps 737 mmHg 77%
    23:00 +3°C° 0 mm 1 mps 736 mmHg 81%
    Show more